User: anonymous   Login
Location: Kott?ru
(16.6209°N, 80.6208°E)
Time: 03:36:26
(UTC+00:00)
Language:

Tsikada Rocket - Orbit

View from above orbital plane
View from above orbital plane
View from above satellite
View from above satellite

Ground track
Ground track

The orbit data is extracted from the following two-line orbital elements,

1 23466U 95002D   20332.78118104 +.00000032 +00000-0 +17750-4 0  9996
2 23466 082.9277 051.1928 0033325 291.2402 187.7096 13.74430504296051
Epoch (UTC): 27 November 2020 18:44:54
Eccentricity: 0.0033325
inclination: 82.9277°
perigee height: 959 km
apogee height: 1008 km
right ascension of ascending node: 51.1928°
argument of perigee: 291.2402°
revolutions per day: 13.74430504
mean anomaly at epoch: 187.7096°
orbit number at epoch: 29605

The dashed part of the orbit path shows where the satellite is in the earth's shadow,  

DLR